This demonstration page uses our WeatherBlox Daily Observations layout. Learn more.

Left ArrowRight Arrow

39.92423, -83.80882

Hourly Observations for April 14, 2022

Temp ( °F °C ) Dew Point ( °F °C ) Humidity (%) Winds ( mph kmh ) Pressure ( in mb ) Visibility ( mi km ) Precip ( " mm )
12:56 am 00:56 Cloudy with Light Rain N/A N/A N/A SSE 15 24 N/A 10 16 0.00 0.00
1:56 am 01:56 Partly Cloudy 61 16 N/A N/A SSW 15 24 29.66 1004 10 16 0.00 0.00
2:35 am 02:35 Cloudy 59 15 N/A N/A S 14 22 29.66 1004 10 16 0.00 0.00
2:56 am 02:56 Cloudy with Light Rain 59 15 N/A N/A SSW 16 26 29.66 1004 10 16 0.00 0.00
3:56 am 03:56 Cloudy with Light Rain 61 16 N/A N/A W 25 41 29.68 1005 8 13 0.00 0.00
4:00 am 04:00 Cloudy with Light Rain 55 13 N/A N/A WNW 26 43 29.69 1005 5 8 0.00 0.00
4:24 am 04:24 Cloudy with Light Rain 50 10 N/A N/A WNW 18 30 29.73 1007 7 11 0.00 0.00
4:56 am 04:56 Cloudy with Light Rain 46 8 N/A N/A W 23 37 29.77 1008 6 10 0.00 0.00
5:42 am 05:42 Cloudy with Light Rain 46 8 N/A N/A WNW 17 28 29.81 1009 5 8 0.00 0.00
5:56 am 05:56 Cloudy with Light Rain 46 8 N/A N/A W 17 28 29.83 1010 7 11 0.00 0.00
6:56 am 06:56 Cloudy with Light Rain 45 7 N/A N/A W 23 37 29.85 1011 10 16 0.00 0.00
7:18 am 07:18 Cloudy 43 6 43 6 100 100 W 18 30 29.92 1013 10 16 0.00 0.00
7:56 am 07:56 Cloudy 42 5.6 41 5 96 96 WNW 20 31 29.91 1013 10 16 0.00 0.00
8:25 am 08:25 Mostly Cloudy 41 5 37 3 87 87 WNW 18 30 29.97 1015 10 16 0.00 0.00
8:32 am 08:32 Partly Cloudy 41 5 36 2 81 81 WNW 16 26 29.97 1015 10 16 0.00 0.00
8:56 am 08:56 Sunny 42 5.6 34 1.1 73 73 WNW 16 26 29.96 1015 10 16 0.00 0.00
9:56 am 09:56 Sunny 43 6.1 33 0.6 68 68 WNW 12 19 29.99 1016 10 16 0.00 0.00
10:56 am 10:56 Sunny 47 8.3 34 1.1 61 61 W 8 13 30.02 1017 10 16 0.00 0.00
11:56 am 11:56 Sunny 50 10 33 0.6 52 52 SW 12 19 30.02 1017 10 16 0.00 0.00
12:56 pm 12:56 Sunny 53 11.7 33 0.6 47 47 WSW 13 20 30.02 1017 10 16 0.00 0.00
1:56 pm 13:56 Sunny 56 13.3 32 0 40 40 W 14 22 30.01 1016 10 16 0.00 0.00
2:56 pm 14:56 Sunny 57 13.9 32 0 39 39 W 22 35 30.01 1016 10 16 0.00 0.00
3:56 pm 15:56 Sunny 58 14.4 31 -0.6 36 36 W 23 37 29.99 1016 10 16 0.00 0.00
4:56 pm 16:56 Sunny 58 14.4 30 -1.1 35 35 W 28 44 29.99 1016 10 16 0.00 0.00
5:56 pm 17:56 Mostly Sunny 57 13.9 30 -1.1 36 36 WSW 22 35 30.00 1016 10 16 0.00 0.00
6:56 pm 18:56 Mostly Cloudy 55 12.8 29 -1.7 37 37 WSW 17 28 30.02 1017 10 16 0.00 0.00
7:56 pm 19:56 Mostly Cloudy 53 11.7 29 -1.7 40 40 WSW 14 22 30.02 1017 10 16 0.00 0.00
8:56 pm 20:56 Mostly Clear 51 10.6 28 -2.2 41 41 WSW 12 19 30.04 1017 10 16 0.00 0.00
9:56 pm 21:56 Clear 50 10 28 -2.2 43 43 SW 10 17 30.06 1018 10 16 0.00 0.00
10:56 pm 22:56 Clear 48 8.9 29 -1.7 48 48 SW 8 13 30.07 1018 10 16 0.00 0.00
11:56 pm 23:56 Clear 47 8.3 29 -1.7 50 50 SW 9 15 30.07 1018 10 16 0.00 0.00

Powered by AerisWeather